Regional Weather Roundup
Issued by NWS

Home | Current Version | Previous Version | Graphics & Text | Print | Product List | Glossary On
Versions: 1 2 3 4 5 6 7 8 9 10 11 12 13 14 15 16 17 18 19 20 21 22 23 24 25 26 27 28 29 30 31 32 33 34 35 36 37 38 39 40 41 42 43 44 45 46 47 48 49 50
000
ASUS43 KMPX 301101
RWRMN
WEATHER ROUNDUP FOR MINNESOTA
NATIONAL WEATHER SERVICE TWIN CITIES/CHANHASSEN MN
600 AM CDT TUE JUN 30 2015


NOTE: "FAIR" INDICATES FEW OR NO CLOUDS BELOW 12,000 FEET WITH NO
SIGNIFICANT WEATHER AND/OR OBSTRUCTIONS TO VISIBILITY. N/A MEANS
CURRENT SKY AND/OR WEATHER CONDITIONS ARE NOT AVAILABLE.

MNZ060>063-068>070-301200-
   Twin Cities Metro

CITY           SKY/WX    TMP DP  RH WIND       PRES   REMARKS
TWIN CITIES    PTCLDY    63  60  90 N6        29.88R
ST PAUL        PTCLDY    62  60  93 VRB3      29.88R FOG
CRYSTAL        CLEAR     63  59  87 N5        29.88R FOG
BLAINE         CLEAR     61  61 100 N6        29.89R
LAKEVILLE      CLEAR     61  61 100 N2        29.88R
EDEN PRAIRIE   CLEAR     62  60  93 N8        29.87R FOG
SOUTH ST PAUL  CLEAR     63  60  91 N5        29.87R
LAKE ELMO      FAIR      61  61 100 CALM      29.89R
$$
MNZ001>005-007-008-013>017-022>024-027-028-301200-
   Northwest Minnesota

CITY           SKY/WX    TMP DP  RH WIND       PRES   REMARKS
BEMIDJI        CLEAR     50  49  98 CALM      29.97R
HALLOCK        FOG       52  52 100 CALM      29.96S VSB<1/4
ROSEAU         PTCLDY    55  50  82 E5        29.98R
WARROAD        MOCLDY    57  54  88 SE7       29.99S
THIEF RVR FALL CLEAR     57  54  88 NE7       29.97R
CROOKSTON      CLEAR     54  54 100 CALM      29.97R FOG
FOSSTON        CLEAR     52  50  93 CALM      29.97R
DETROIT LAKES  PTCLDY    57  55  94 CALM      29.97R FOG
MOORHEAD       CLEAR     57  57 100 CALM      29.95R FOG
PARK RAPIDS    CLEAR     55  52  89 CALM      29.95R FOG
MAHNOMEN       FAIR      55  54  98 CALM      29.96R
$$
MNZ006-009>011-018-025>026-301200-
   North Central Minnesota

CITY           SKY/WX    TMP DP  RH WIND       PRES   REMARKS
BAUDETTE       PTCLDY    53  50  89 CALM      29.98R
FLAG ISLAND    PTCLDY    59  52  77 E3        29.98R
INTL FALLS     CLEAR     47  45  93 CALM      29.97R
WASKISH        PTCLDY    54  52  94 NE3       29.98R
BIG FORK       CLEAR     48  46  93 CALM      29.97S FOG
LONGVILLE      CLEAR     57  55  94 CALM      29.95R
GRAND RAPIDS   CLEAR     52  48  87 N5        29.95R
CRANE LAKE     CLOUDY    55  50  82 NE2       29.99R
COOK           PTCLDY    54  52  94 NE3       29.97R
WALKER         FAIR      51  51  97 CALM      29.96R
$$
MNZ012-019>021-037-301200-
   Northeast Minnesota

CITY           SKY/WX    TMP DP  RH WIND       PRES   REMARKS
DULUTH         CLOUDY    60  56  86 E12       29.93R
ELY            CLOUDY    55  48  76 E6        29.97R
HIBBING        CLEAR     52  50  93 N3        29.95R
EVELETH        CLEAR     54  52  94 NE7       29.95S
DULUTH HARBOR  CLOUDY    61  57  88 NE15      29.92R
TWO HARBORS    CLOUDY    59  54  82 E9        29.92R
GRAND MARAIS     N/A     52  42  69 E5        29.94R
G MARAIS ARPRT CLEAR     45  37  76 N10       29.95R
$$
MNZ029>031-032-039>041-046>048-054>057-064-301200-
   West Central Minnesota

CITY           SKY/WX    TMP DP  RH WIND       PRES   REMARKS
FERGUS FALLS   CLEAR     61  61 100 E3        29.95R
WHEATON        CLEAR     57  57 100 CALM      29.96R FOG
MORRIS         CLEAR     61  57  88 CALM      29.94R FOG
ALEXANDRIA     PTCLDY    59  56  89 NE5       29.96R
ELBOW LAKE     FAIR      61  58  89 E5        29.94R
WADENA         CLEAR     54  52  94 CALM      29.95R FOG
GLENWOOD       PTCLDY    59  57  94 NE6       29.95R
APPLETON       CLEAR     59  55  88 CALM      29.94R FOG
BENSON         PTCLDY    61  57  88 NE3       29.94R
ORTONVILLE     CLEAR     61  57  88 N3        29.94R
MADISON        CLEAR     61  57  88 N3        29.94R FOG
WILLMAR        FAIR      63  61  94 NE6       29.94R
$$
MNZ033>034-036-042>043-049>051-058-059-301200-
   Central Minnesota

CITY           SKY/WX    TMP DP  RH WIND       PRES   REMARKS
ST CLOUD       CLEAR     58  57  97 N5        29.91R FOG
SAUK CENTRE    FAIR      58  56  92 CALM      29.94R
PAYNESVILLE    PTCLDY    56  55  98 CALM      29.94R FOG
AITKIN         CLEAR     52  46  82 CALM      29.93R HAZE
PINE RIVER     CLEAR     52  52 100 CALM      29.98R FOG
BRAINERD       CLEAR     57  55  93 N5        29.94R FOG
STAPLES        CLEAR     55  54  94 CALM      29.94S FOG
LONG PRAIRIE   CLOUDY    55  54  94 CALM      29.95R
LITTLE FALLS   FOG       52  50  93 CALM      29.93R VSB 1/4
LITCHFIELD     CLEAR     63  61  94 N3        29.93R
BUFFALO        CLEAR     61  57  85 N3        29.91R
MAPLE LAKE     CLEAR     61  59  92 CALM      29.92R
$$
MNZ037-044-045-052-053-301200-
   East Central Minnesota

CITY           SKY/WX    TMP DP  RH WIND       PRES   REMARKS
PRINCETON      CLEAR     59  55  88 CALM      29.91R
MORA           CLEAR     55  54  94 CALM      29.92R
CAMBRIDGE      CLEAR     61  52  72 CALM      29.89R HAZE
MOOSE LAKE     CLEAR     54  54 100 NE3       29.91R FOG
HINCKLEY       FAIR      55  55 100 N3        29.91R
CLOQUET        CLOUDY    57  55  94 N5        29.93R
MCGREGOR       CLEAR     57  54  88 N3        29.94R
$$
MNZ071>073-080-081-089-090-097-098-301200-
   Southwest Minnesota

CITY           SKY/WX    TMP DP  RH WIND       PRES   REMARKS
MONTEVIDEO     PTCLDY    61  61 100 N3        29.94R FOG
GRANITE FALLS  CLOUDY    59  58  97 W5        29.94R FOG
CANBY          PTCLDY    61  59  92 NW5       29.95R
MARSHALL       PTCLDY    61  55  82 NW8       29.94R
REDWOOD FALLS  MOCLDY    63  61  93 N5        29.91R FOG
OLIVIA         PTCLDY    57  55  94 N3        29.91R FOG
PIPESTONE      PTCLDY    61  57  88 W5        29.96R FOG
WINDOM         FAIR      63  61  94 CALM      29.93R FOG
WORTHINGTON    CLOUDY    63  57  82 NW8       29.95R
JACKSON          N/A     61  61 100 NW6       29.93R FOG
TRACY          CLOUDY    63  62  96 W3        29.94R
SLAYTON        MOCLDY    61  61  99 CALM      29.95R
$$
MNZ065>067-074>077-082>085-091>093-301200-
   South Central Minnesota

CITY           SKY/WX    TMP DP  RH WIND       PRES   REMARKS
MANKATO        CLEAR     63  59  88 N3        29.89R
NEW ULM        PTCLDY    63  63 100 N3        29.90R
ST JAMES       PTCLDY    63  63 100 W6        29.91R FOG
FAIRMONT       PTCLDY    63  57  82 NW8       29.90R
GLENCOE        CLEAR     62  60  94 N3        29.90R
FARIBAULT      FOG       57  57 100 CALM      29.89R VSB<1/4
OWATONNA         N/A     57  55  94 CALM      29.88R FOG
WASECA           N/A     59  57  94 N5        29.89R FOG
ALBERT LEA     CLEAR     63  63 100 NW3       29.88R FOG
$$
MNZ078>079-086>088-094>096-301200-
   Southeast Minnesota

CITY           SKY/WX    TMP DP  RH WIND       PRES   REMARKS
ROCHESTER      LGT RAIN  58  56  93 NW7       29.88R FOG
RED WING       FOG       59  57  94 CALM      29.86R VSB 1/2
DODGE CENTER   CLEAR     59  57  94 N3        29.88R FOG
WINONA         CLOUDY    59  59 100 CALM      29.86R FOG
AUSTIN         CLEAR     57  55  94 CALM      29.87R FOG
PRESTON        CLEAR     56  55  95 NW3       29.87R FOG
$$
ABBREVIATIONS USED IN REMARKS
   TC - TEMPERATURES IN CELSIUS
  WCI - WIND CHILL INDEX
   HX - HEAT INDEX
  VSB - VISIBILITY
$$


USA.gov is the U.S. government's official web portal to all federal, state and local government web resources and services.